Location: Paris
(48.6709°N, 2.3750°E)
Time: 06:35:05
(UTC+02:00)

YUBILEINY - Pass Details

Date: 30 June 2022
Orbit: 1478 x 1509 km, 82.5° (Epoch: 17 August)

Event Time Altitude Azimuth Distance (km) Brightness Sun altitude
Rises 04:46:16 0° 351° (N) 4,658 ? -8.5°
Reaches altitude 10° 04:49:37 10° 1° (N) 3,670 ? -8.2°
Maximum altitude 04:57:26 34° 64° (ENE) 2,292 ? -7.3°
Drops below altitude 10° 05:05:09 10° 126° (SE) 3,633 ? -6.5°
Sets 05:08:25 0° 136° (SE) 4,605 ? -6.1°
